Regional Weather Roundup
Issued by NWS

Home | Current Version | Previous Version | Text Only | Print | Product List | Glossary Off
Versions: 1 2 3 4 5 6 7 8 9 10 11 12 13 14 15 16 17 18 19 20 21 22 23 24 25 26 27 28 29 30 31 32 33 34 35 36 37 38 39 40 41 42 43 44 45 46 47 48 49 50

000
ASUS43 KDTX 291110
RWRMI
MICHIGAN HOURLY REGIONAL WEATHER ROUNDUP
NATIONAL WEATHER SERVICE DETROIT/PONTIAC MI
700 AM EDT THU SEP 29 2016

NOTE: "FAIR" INDICATES FEW OR NO CLOUDS BELOW 12,000 FEET WITH NO
SIGNIFICANT WEATHER AND/OR OBSTRUCTION TO VISIBILITY.

MIZ047>049-052>055-059>063-066>070-074>076-081>083-291200-
SOUTHEAST LOWER MICHIGAN

CITY           SKY/WX    TMP DP  RH WIND       PRES   REMARKS
ADRIAN         CLOUDY    58  58 100 N6        30.04R
ALMA           CLOUDY    60  58  91 N13       30.14S
ANN ARBOR      RAIN      59  59 100 NE10      30.04R FOG
BAD AXE        MOCLDY    59  55  88 E15G22    30.20R
CARO           CLOUDY    60  56  85 NE10G18   30.14F
DETROIT CITY   HVY RAIN  60  60 100 NE14      30.04F FOG
DETROIT        RAIN      61  60  97 VRB7G21   30.04R FOG
FLINT          RAIN      60  57  89 E16G26    30.10R
HILLSDALE      CLOUDY    57  55  94 NE5       30.03S
HOWELL         RAIN      59  57  96 NE13G21   30.07R

CITY           SKY/WX    TMP DP  RH WIND       PRES   REMARKS
JACKSON        CLOUDY    58  58 100 NE8       30.05R
LAMBERTVILLE   CLOUDY    59  58  94 CALM      30.03R FOG
LANSING        LGT RAIN  59  55  87 NE10G22   30.08R
LAPEER         DRIZZLE   60  58  93 E8        30.12R
MASON          RAIN      58  57  95 NE12      30.07R
MONROE         CLOUDY    59  59 100 N3        30.02R FOG
MT. CLEMENS    DRIZZLE   59  59 100 NE20G29   30.05R
PONTIAC        HVY RAIN  58  56  93 NE15G21   30.07R FOG
PORT HURON     LGT RAIN  59  57  94 NE10G17   30.11R
TRI CITIES     CLOUDY    61  57  87 NE14      30.17R
MIDLAND        CLOUDY    62  56  81 NE14      30.17R
TROY           HVY RAIN  60  57  91 NE12G17   30.09R
SAGINAW HB     CLOUDY    61  54  77 NE16G22   30.14S
$$
MIZ043>046-050>051-056>058-064>065-071>073-077>080-291200-
SOUTHWEST LOWER MICHIGAN

CITY           SKY/WX    TMP DP  RH WIND       PRES   REMARKS
BATTLE CREEK   RAIN      58  57  97 NE10      30.07R FOG
BENTON HARBOR  LGT RAIN  58  54  86 E5        30.08R
BIG RAPIDS     CLEAR     58  55  91 NE7       30.19R
COLDWATER      CLOUDY    57  57  99 NE6       30.04R
FREMONT        FAIR      57  53  85 NE8       30.16R
HOLLAND        MOCLDY    60  53  77 N9G16     30.11S
GRAND RAPIDS   CLOUDY    59  53  80 NE17      30.10S
IONIA          LGT RAIN  58  54  85 NE13G26   30.10R
KALAMAZOO      LGT RAIN  58  55  90 NE7       30.07R FOG
LUDINGTON      CLEAR     54  52  93 N7        30.21R
MARSHALL       CLOUDY    58  58  98 NE3       30.06R
MOUNT PLEASANT MOCLDY    58  56  91 NE13      30.17R
MUSKEGON       PTCLDY    57  52  83 NE9       30.15R
SOUTH HAVEN    LGT RAIN  60  56  87 NE10      30.08R
$$
MIZ016>042-291200-
NORTHERN LOWER MICHIGAN

CITY           SKY/WX    TMP DP  RH WIND       PRES   REMARKS
ALPENA         CLEAR     59  56  89 NE13      30.31R
BEAVER ISLAND  CLEAR     57  54  89 NE6       30.33R
BELLAIRE       CLEAR     55  53  94 NE6       30.29R
CADILLAC       CLEAR     53  51  92 NE7       30.24R
CHARLEVOIX     CLEAR     59  56  91 NE10      30.33R
FRANKFORT      CLEAR     58  53  82 N5        30.26R
GAYLORD        CLOUDY    57  54  89 NE15G21   30.30R FOG
GRAYLING       PTCLDY    56  55  96 NE9       30.28R
HARBOR SPRINGS CLEAR     56  54  94 NE6       30.31R FOG
HOUGHTON LAKE  MOCLDY    56  54  93 NE13      30.26R
MANISTEE       CLEAR     56  51  84 E10       30.23R
OSCODA         CLEAR     60  56  87 E16       30.25R
PELLSTON       CLEAR     53  51  93 NE7       30.33R
ROGERS CITY    PTCLDY    60  57  89 E8        30.33R
TRAVERSE CITY  CLEAR     57  53  86 E7        30.26R
$$
MIZ007>008-015-291200-
EASTERN UPPER MICHIGAN

CITY           SKY/WX    TMP DP  RH WIND       PRES   REMARKS
KINROSS        CLEAR     53  50  89 NE8       30.36R
MACKINAC ISLAN CLEAR     56  56 100 NE9       30.34R
NEWBERRY       CLEAR     51  50  97 N7        30.36S
S. S. MARIE    CLEAR     54  50  86 NE5       30.36R
MUNISING         N/A     50  50 100 S5        30.37R
$$
MIZ004>006-011>014-085-291200-
CENTRAL UPPER MICHIGAN

CITY           SKY/WX    TMP DP  RH WIND       PRES   REMARKS
MANISTIQUE     CLEAR     51  49  93 N7        30.35R
ESCANABA       CLEAR     54  53  97 N6        30.35R
MENOMINEE      CLEAR     53  50  89 N7        30.34R
SAWYER-GWINN   MOCLDY    55  54  94 N10       30.40R
$$
MIZ001>003-009>011-084-291200-
WESTERN UPPER MICHIGAN

CITY           SKY/WX    TMP DP  RH WIND       PRES   REMARKS
IRON MOUNTAIN  CLEAR     48  45  89 NW7       30.38R
HOUGHTON       MOCLDY    53  50  89 N6        30.43R
COPPER HARBOR    N/A     57  55  93 E7        30.43R
IRONWOOD       CLOUDY    50  50 100 CALM      30.46R
$$

ABBREVIATIONS USED IN REMARKS
   TC - TEMPERATURE IN CELSIUS
  WCI - WIND CHILL INDEX
   HX - HEAT INDEX
  VSB - VISIBILITY





USA.gov is the U.S. government's official web portal to all federal, state and local government web resources and services.